GW4079 Weather Reports


Display with metric or nautical units.
time (UTC)temp
F
wind
direction
speed
MPH
gust
MPH
rain 1hr
in
rain 24hr
in
rain mn
in
humidity
%
barometer
mb
20260903084548 49 190 0.0 0.0 0.00 0.02 0.00 72 1007.7
20260903083056 49 190 0.0 0.0 0.00 0.02 0.00 73 1007.5
20260903081544 46 190 0.0 2.0 0.00 0.02 0.00 78 1007.6
20260903080045 48 190 0.0 0.0 0.00 0.02 0.00 75 1007.6
20260903074546 48 190 0.0 2.0 0.00 0.02 0.00 75 1007.7
20260903073051 50 190 1.0 3.0 0.00 0.02 0.00 72 1007.7
20260903071551 49 190 0.0 8.0 0.00 0.02 0.00 74 1007.8
20260903070046 47 288 3.0 5.0 0.00 0.02 0.00 78 1007.9
20260903064545 48 142 3.0 5.0 0.00 0.02 0.00 76 1007.6
20260903063034 49 142 0.0 4.0 0.00 0.02 0.00 75 1007.4
20260903061537 48 142 3.0 5.0 0.00 0.02 0.00 77 1007.2
20260903060044 49 170 6.0 7.0 0.00 0.02 0.00 76 1007.2
20260903054540 51 179 5.0 6.0 0.00 0.02 0.02 73 1008.0
20260903053038 51 211 5.0 9.0 0.00 0.02 0.02 72 1008.1
20260903051540 50 205 4.0 6.0 0.00 0.02 0.02 76 1008.5
20260903050044 52 205 3.0 5.0 0.00 0.02 0.02 74 1008.3
20260903044540 53 205 4.0 9.0 0.00 0.02 0.02 70 1008.3
20260903043041 52 248 0.0 3.0 0.00 0.02 0.02 77 1008.6
20260903041545 52 198 0.0 0.0 0.00 0.02 0.02 77 1008.4
20260903040044 51 198 0.0 0.0 0.00 0.02 0.02 80 1008.4
20260903034541 51 198 0.0 3.0 0.00 0.02 0.02 81 1008.5
20260903033047 52 198 3.0 6.0 0.00 0.02 0.02 79 1008.3
20260903031545 54 241 7.0 11.0 0.00 0.02 0.02 74 1008.3
20260903030051 55 250 11.0 16.0 0.00 0.02 0.02 73 1008.4
20260903024540 56 259 12.0 17.0 0.00 0.02 0.02 72 1007.7
20260903023039 57 257 12.0 19.0 0.00 0.02 0.02 69 1007.6
20260903021548 59 258 16.0 26.0 0.00 0.02 0.02 66 1007.5
20260903020041 60 201 15.0 21.0 0.00 0.02 0.02 61 1007.2
20260903014551 60 201 11.0 17.0 0.00 0.02 0.02 64 1007.5
20260903013040 62 182 6.0 10.0 0.00 0.02 0.02 62 1007.6
20260903011555 63 165 3.0 7.0 0.00 0.02 0.02 67 1008.1
20260903010046 62 144 0.0 10.0 0.00 0.02 0.02 63 1008.3
20260903004541 62 303 0.0 8.0 0.00 0.02 0.02 64 1008.1
20260903003048 62 302 8.0 14.0 0.00 0.02 0.02 61 1007.3
20260903001542 61 300 11.0 14.0 0.01 0.02 0.02 66 1007.0
20260903000052 61 288 11.0 21.0 0.01 0.02 0.02 64 1008.0
20260902234547 61 246 21.0 28.0 0.01 0.02 0.02 62 1008.6
20260902233051 60 249 18.0 26.0 0.01 0.02 0.02 64 1008.9
20260902231542 60 218 22.0 30.0 0.01 0.01 0.01 69 1008.9
20260902230101 63 217 33.0 47.0 0.01 0.01 0.01 54 1008.5
20260902224544 68 217 38.0 48.0 0.01 0.01 0.01 45 1007.1
20260902223046 78 211 21.0 34.0 0.00 0.00 0.00 35 1004.6
20260902221541 82 194 11.0 15.0 0.00 0.00 0.00 26 1003.8
20260902220054 83 172 10.0 13.0 0.00 0.00 0.00 26 1003.9
20260902214600 83 198 11.0 21.0 0.00 0.00 0.00 26 1004.3
20260902213044 84 223 10.0 19.0 0.00 0.00 0.00 25 1004.2
20260902211549 85 194 10.0 19.0 0.00 0.00 0.00 25 1004.5
20260902210047 84 192 11.0 20.0 0.00 0.00 0.00 26 1004.5
20260902204557 83 206 6.0 13.0 0.00 0.00 0.00 28 1005.2
20260902203055 82 173 7.0 14.0 0.00 0.00 0.00 29 1005.3
20260902201551 80 170 10.0 16.0 0.00 0.00 0.00 30 1005.7
20260902200056 80 217 9.0 17.0 0.00 0.00 0.00 31 1005.9
20260902194554 79 213 12.0 15.0 0.00 0.00 0.00 32 1006.0
20260902193058 79 163 9.0 16.0 0.00 0.00 0.00 32 1006.1
20260902191556 78 184 10.0 15.0 0.00 0.00 0.00 33 1006.4
20260902190056 78 215 9.0 20.0 0.00 0.00 0.00 33 1006.6
20260902184548 78 239 12.0 19.0 0.00 0.00 0.00 34 1006.6
20260902183107 77 234 9.0 14.0 0.00 0.00 0.00 36 1006.8
20260902181544 77 263 12.0 16.0 0.00 0.00 0.00 35 1006.8
20260902180048 77 217 12.0 19.0 0.00 0.00 0.00 35 1007.0
20260902174601 76 183 9.0 14.0 0.00 0.00 0.00 38 1007.2
20260902173114 75 239 11.0 18.0 0.00 0.00 0.00 39 1007.4
20260902171606 74 216 8.0 15.0 0.00 0.00 0.00 40 1007.7
20260902170051 73 209 8.0 12.0 0.00 0.00 0.00 41 1007.7
20260902164558 72 213 5.0 10.0 0.00 0.00 0.00 44 1007.7
20260902163051 70 250 5.0 8.0 0.00 0.00 0.00 45 1007.6
20260902161559 70 249 5.0 8.0 0.00 0.00 0.00 45 1007.7
20260902160103 69 258 2.0 7.0 0.00 0.00 0.00 46 1007.5
20260902154552 68 250 3.0 7.0 0.00 0.00 0.00 48 1007.8
20260902153100 66 222 4.0 7.0 0.00 0.00 0.00 51 1008.1
20260902151553 65 222 2.0 5.0 0.00 0.00 0.00 52 1008.3
20260902150055 64 203 1.0 6.0 0.00 0.00 0.00 54 1008.5
20260902144554 61 192 5.0 7.0 0.00 0.00 0.00 58 1008.6
20260902143055 60 194 2.0 4.0 0.00 0.00 0.00 58 1008.5
20260902141606 59 194 2.0 3.0 0.00 0.00 0.00 60 1008.6
20260902140050 57 194 0.0 3.0 0.00 0.00 0.00 63 1008.8
20260902134545 57 193 3.0 5.0 0.00 0.00 0.00 63 1008.8
20260902133057 56 188 3.0 6.0 0.00 0.00 0.00 64 1008.5
20260902131618 55 175 3.0 6.0 0.00 0.00 0.00 66 1008.6
20260902130059 54 171 1.0 7.0 0.00 0.00 0.00 69 1008.6
20260902124607 55 216 4.0 6.0 0.00 0.00 0.00 66 1008.5
20260902123137 56 23 0.0 0.0 0.00 0.00 0.00 63 1008.2
20260902121558 57 24 3.0 6.0 0.00 0.00 0.00 62 1007.7
20260902120124 56 46 2.0 4.0 0.00 0.00 0.00 65 1008.0
20260902114540 55 69 2.0 3.0 0.00 0.00 0.00 64 1008.2
20260902113035 55 347 0.0 4.0 0.00 0.00 0.00 64 1008.3
20260902111544 56 308 0.0 6.0 0.00 0.00 0.00 62 1008.6
20260902110032 56 268 3.0 9.0 0.00 0.00 0.00 61 1008.8
20260902104537 56 258 3.0 8.0 0.00 0.00 0.00 62 1008.6
20260902103036 56 240 4.0 8.0 0.00 0.00 0.00 61 1008.4
20260902101539 55 211 5.0 8.0 0.00 0.00 0.00 61 1008.5
20260902100036 55 187 5.0 6.0 0.00 0.00 0.00 60 1008.6
20260902094537 56 179 5.0 7.0 0.00 0.00 0.00 59 1008.5
20260902093035 57 177 5.0 7.0 0.00 0.00 0.00 57 1008.6
20260902091533 58 174 3.0 5.0 0.00 0.00 0.00 55 1008.5
20260902090040 58 173 2.0 4.0 0.00 0.00 0.00 55 1008.8